Location: Kott?ru
(16.6209°N, 80.6208°E)
Time: 14:45:14
(UTC+00:00)

Sylda 5 - Pass Details

Date: 18 September 2020
Orbit: 571 x 35533 km, 7.2° (Epoch: 31 October)

Event Time Altitude Azimuth Distance (km) Brightness Sun altitude
Exits shadow 22:54:23 21° 177° (S) 1,308 3.6 -22.7°
Maximum altitude 22:54:31 21° 173° (S) 1,311 3.7 -22.7°
Drops below altitude 10° 22:57:38 10° 120° (ESE) 2,208 5.6 -22.0°
Sets 23:01:27 0° 103° (ESE) 4,025 7.4 -21.0°
